KM8N Weather Reports


Display with metric or nautical units.
time (UTC)temp
F
wind
direction
speed
MPH
gust
MPH
rain 1hr
in
rain 24hr
in
rain mn
in
humidity
%
barometer
mb
20260507022316 47 320 0.0 0.0 0.00 0.76 0.51 90 1015.5
20260507021325 48 320 0.0 0.0 0.00 0.76 0.51 89 1015.4
20260507020331 48 320 0.0 0.0 0.00 0.76 0.51 89 1015.2
20260507015335 49 320 0.0 0.0 0.00 0.87 0.51 88 1015.2
20260507014319 49 320 0.0 0.0 0.00 0.87 0.51 87 1015.0
20260507013324 50 320 0.0 0.0 0.00 0.87 0.51 86 1014.9
20260507012349 50 320 0.0 0.0 0.00 0.87 0.51 86 1014.9
20260507011315 50 320 0.0 0.0 0.00 0.87 0.51 84 1014.8
20260507010323 51 320 0.0 0.0 0.00 0.87 0.51 83 1014.8
20260507005328 51 320 0.0 0.0 0.00 0.97 0.51 81 1014.9
20260507004332 52 320 0.0 0.0 0.00 0.97 0.51 79 1014.7
20260507003319 53 320 0.0 0.0 0.00 0.97 0.51 77 1014.5
20260507002324 54 320 0.0 0.0 0.00 0.97 0.51 74 1014.4
20260507001330 54 320 0.0 0.0 0.00 0.97 0.51 69 1014.3
20260507000317 55 320 0.0 0.0 0.00 0.97 0.51 67 1014.2
20260506235324 55 320 0.0 0.0 0.00 1.05 0.51 64 1014.3
20260506234328 56 320 0.0 0.0 0.00 1.05 0.51 62 1014.3
20260506233351 56 323 0.0 1.0 0.00 1.05 0.51 58 1014.1
20260506232333 57 300 0.0 1.0 0.00 1.05 0.51 57 1014.0
20260506231316 57 285 0.0 2.0 0.00 1.05 0.51 56 1014.2
20260506230321 57 252 1.0 4.0 0.00 1.05 0.51 55 1014.2
20260506225321 58 317 1.0 4.0 0.00 1.16 0.51 53 1014.2
20260506224326 58 289 1.0 2.0 0.00 1.16 0.51 51 1014.3
20260506223354 57 270 1.0 3.0 0.00 1.16 0.51 52 1014.5
20260506222314 57 336 2.0 5.0 0.00 1.16 0.51 51 1014.4
20260506221321 57 285 2.0 4.0 0.00 1.16 0.51 52 1014.4
20260506220326 57 285 1.0 4.0 0.00 1.16 0.51 51 1014.5
20260506215334 57 317 2.0 4.0 0.00 1.20 0.51 52 1014.5
20260506214339 57 288 2.0 5.0 0.00 1.20 0.51 53 1014.5
20260506213324 58 300 1.0 4.0 0.00 1.20 0.51 56 1014.4
20260506212328 57 276 1.0 4.0 0.00 1.20 0.51 53 1014.2
20260506211331 57 317 2.0 4.0 0.00 1.20 0.51 54 1014.2
20260506210314 57 271 1.0 3.0 0.00 1.20 0.51 54 1014.1
20260506205318 58 342 2.0 4.0 0.00 1.27 0.51 53 1014.0
20260506204322 57 6 1.0 4.0 0.00 1.27 0.51 53 1014.1
20260506203327 57 281 1.0 5.0 0.00 1.27 0.51 53 1014.2
20260506202314 57 314 1.0 3.0 0.00 1.27 0.51 55 1014.1
20260506201318 57 283 1.0 4.0 0.00 1.27 0.51 52 1014.3
20260506200320 58 315 2.0 6.0 0.00 1.27 0.51 50 1014.0
20260506195325 58 49 2.0 4.0 0.00 1.34 0.51 52 1014.1
20260506194328 58 23 1.0 5.0 0.00 1.34 0.51 53 1014.0
20260506193313 58 304 1.0 5.0 0.00 1.34 0.51 52 1013.9
20260506192338 58 6 3.0 7.0 0.00 1.34 0.51 53 1013.8
20260506191322 58 23 3.0 7.0 0.00 1.34 0.51 54 1014.0
20260506190347 58 311 3.0 7.0 0.00 1.34 0.51 53 1014.0
20260506185351 58 264 1.0 6.0 0.00 1.34 0.51 53 1014.0
20260506184315 59 311 2.0 7.0 0.00 1.34 0.51 51 1014.0
20260506182346 59 41 3.0 11.0 0.00 1.34 0.51 49 1013.8
20260506181331 59 346 3.0 10.0 0.00 1.34 0.51 53 1013.8
20260506180317 59 252 2.0 7.0 0.00 1.34 0.51 51 1014.0
20260506175322 58 269 1.0 7.0 0.00 1.34 0.51 52 1014.0
20260506174327 59 261 2.0 5.0 0.00 1.34 0.51 54 1014.1
20260506173315 59 13 3.0 6.0 0.00 1.34 0.51 56 1014.1
20260506172324 58 297 3.0 9.0 0.00 1.34 0.51 57 1014.2
20260506171326 59 49 1.0 5.0 0.00 1.34 0.51 53 1014.1
20260506170331 59 331 2.0 4.0 0.00 1.34 0.51 55 1014.2
20260506165315 59 13 3.0 5.0 0.00 1.34 0.51 55 1014.3
20260506164322 58 214 2.0 4.0 0.00 1.34 0.51 60 1014.2
20260506163329 58 322 2.0 4.0 0.00 1.34 0.51 59 1014.0
20260506162317 56 296 4.0 6.0 0.00 1.34 0.51 59 1014.1
20260506161321 57 309 3.0 6.0 0.00 1.34 0.51 58 1014.2
20260506160347 56 316 2.0 10.0 0.00 1.34 0.51 61 1014.2
20260506155332 56 29 1.0 4.0 0.00 1.34 0.51 60 1014.2
20260506154317 56 281 1.0 4.0 0.00 1.34 0.51 61 1014.3
20260506153322 55 31 1.0 5.0 0.00 1.34 0.51 63 1014.3
20260506152325 55 349 2.0 6.0 0.00 1.34 0.51 66 1014.3
20260506151317 54 22 2.0 5.0 0.00 1.34 0.51 66 1013.9
20260506150342 53 25 2.0 7.0 0.00 1.34 0.51 65 1013.5
20260506145325 53 39 3.0 6.0 0.00 1.34 0.51 68 1013.3
20260506144329 52 43 1.0 7.0 0.00 1.34 0.51 71 1013.1
20260506143317 51 359 3.0 5.0 0.00 1.34 0.51 72 1012.9
20260506142320 51 57 1.0 8.0 0.00 1.34 0.51 74 1013.1
20260506141347 51 9 1.0 5.0 0.00 1.34 0.51 76 1013.0
20260506140330 50 27 2.0 4.0 0.00 1.34 0.51 77 1013.0
20260506135319 49 314 2.0 4.0 0.00 1.34 0.51 78 1013.4
20260506134323 49 356 2.0 6.0 0.00 1.34 0.51 80 1013.3
20260506133330 48 293 2.0 4.0 0.00 1.34 0.51 82 1013.0
20260506132313 48 330 0.0 3.0 0.00 1.34 0.51 86 1012.9
20260506131319 47 325 2.0 5.0 0.00 1.34 0.51 85 1012.7
20260506130326 47 36 2.0 5.0 0.00 1.34 0.51 86 1012.7
20260506125314 46 297 2.0 5.0 0.00 1.34 0.51 87 1012.7
20260506124319 46 13 1.0 3.0 0.00 1.34 0.51 89 1012.3
20260506123324 46 13 2.0 4.0 0.00 1.34 0.51 89 1012.3
20260506122330 46 329 1.0 3.0 0.00 1.34 0.51 90 1012.1
20260506121315 46 62 1.0 2.0 0.00 1.34 0.51 90 1012.3
20260506120341 45 18 0.0 3.0 0.00 1.34 0.51 91 1012.0
20260506115345 45 49 1.0 4.0 0.00 1.34 0.51 91 1011.5
20260506114329 45 297 0.0 2.0 0.00 1.34 0.51 92 1011.6
20260506113319 44 299 0.0 2.0 0.00 1.34 0.51 92 1011.0
20260506112324 44 8 0.0 3.0 0.00 1.34 0.51 92 1010.7
20260506111350 44 23 0.0 2.0 0.00 1.34 0.51 92 1010.9
20260506110335 44 58 0.0 2.0 0.00 1.34 0.51 92 1011.0
20260506105339 44 18 0.0 1.0 0.00 1.39 0.51 92 1010.7
20260506104321 44 334 0.0 2.0 0.00 1.39 0.51 92 1010.8
20260506103326 44 352 0.0 4.0 0.00 1.39 0.51 92 1010.5
20260506102329 44 334 2.0 6.0 0.00 1.39 0.51 93 1009.9
20260506101334 44 354 1.0 5.0 0.00 1.39 0.51 93 1009.8
20260506100319 44 8 0.0 2.0 0.00 1.39 0.51 93 1010.0
20260506095321 44 288 1.0 4.0 0.00 1.44 0.51 93 1010.3
20260506094326 44 289 1.0 2.0 0.00 1.44 0.51 94 1010.1
20260506093318 45 51 0.0 4.0 0.00 1.44 0.51 94 1009.7
20260506092322 45 16 0.0 3.0 0.00 1.44 0.51 94 1009.3
20260506091328 44 344 0.0 3.0 0.00 1.44 0.51 94 1009.4
20260506090335 45 67 0.0 2.0 0.00 1.44 0.51 94 1009.4
20260506085319 44 28 0.0 2.0 0.01 1.44 0.51 94 1009.5
20260506084323 44 44 1.0 6.0 0.03 1.44 0.51 94 1009.3
20260506083328 45 80 0.0 2.0 0.05 1.44 0.51 94 1009.2
20260506082317 44 35 1.0 6.0 0.06 1.44 0.51 94 1009.3
20260506081320 45 231 1.0 5.0 0.08 1.44 0.51 94 1009.2
20260506080328 45 13 1.0 4.0 0.09 1.44 0.51 94 1009.2
20260506073322 45 12 1.0 7.0 0.05 1.39 0.46 94 1009.6
20260506072326 45 31 2.0 7.0 0.04 1.38 0.45 94 1009.2
20260506071329 46 28 2.0 7.0 0.03 1.36 0.43 94 1009.2
20260506070314 46 41 3.0 8.0 0.05 1.35 0.42 93 1009.1
20260506062336 47 31 2.0 6.0 0.12 1.34 0.41 95 1008.7
20260506061318 47 32 2.0 6.0 0.14 1.33 0.40 95 1008.4
20260506060323 47 28 2.0 4.0 0.15 1.30 0.37 94 1008.4
20260506051324 48 11 2.0 7.0 0.17 1.18 0.25 94 1009.2
20260506050333 48 30 1.0 9.0 0.18 1.14 0.21 94 1008.8
20260506044323 48 23 2.0 7.0 0.25 1.08 0.15 94 1008.6
20260506043329 49 49 5.0 11.0 0.23 1.04 0.11 94 1008.4
20260506042316 50 311 2.0 5.0 0.22 1.03 0.10 95 1008.5
20260506041322 50 290 0.0 8.0 0.20 1.01 0.08 95 1008.5
20260506040327 50 10 2.0 7.0 0.14 0.95 0.02 94 1008.5
20260506035316 50 12 2.0 6.0 0.06 0.87 0.87 95 1008.4
20260506034321 50 43 2.0 4.0 0.02 0.82 0.82 94 1008.0
20260506033326 50 25 0.0 5.0 0.04 0.81 0.81 94 1007.9
20260506032331 50 42 0.0 3.0 0.08 0.81 0.81 95 1007.9
20260506031315 50 34 1.0 4.0 0.10 0.81 0.81 94 1008.0
20260506030321 50 45 1.0 7.0 0.12 0.81 0.81 94 1008.0
20260506025327 51 7 1.0 4.0 0.14 0.81 0.81 94 1008.4
20260506024314 51 63 2.0 4.0 0.13 0.79 0.79 94 1008.4
20260506023320 51 53 2.0 8.0 0.12 0.77 0.77 93 1008.8